Home > Weather > Hamburg > Past weeks

Flag for Germany Weather for the Past 2 Weeks in Hamburg, Hamburg, Germany

Now
48 °F

Passing clouds.


Feels Like: 42 °F
Forecast: 43 / 49 °F
Wind: 17 mph from Southwest

Location: Hamburg-Fuhlsbuettel

Current Time: Feb 7, 2016 at 6:57:03 PM

Latest Report: Feb 7, 2016 at 6:20 PM


Visibility: N/A

Pressure: 29.50 "Hg

Humidity: 66%

Dew point: 37 °F

Location of HamburgLocation

Historic Weather in Hamburg — Graph

°F

Hamburg Temperature Yesterday

Maximum temperature yesterday: 50 °F (at 11:50 AM)
Minimum temperature yesterday: 45 °F (at 9:50 PM)
Average temperature yesterday: 48 °F

High & Low Weather Summary for the Past Weeks

 TemperatureHumidityPressure
High54 °F (Feb 1, 8:20 PM)100% (Jan 23, 6:20 PM)30.45 "Hg (Jan 23, 6:20 PM)
Low34 °F (Jan 31, 1:50 AM)57% (Feb 2, 6:20 PM)29.42 "Hg (Feb 7, 12:50 PM)
Average44 °F86%29.91 "Hg
* Reported Jan 23 5:20 PM — Feb 7 5:20 PM, Hamburg, Weather by CustomWeather, © 2016

Note: Actual official high and low records may vary slightly from our data, if they occured in-between our weather recording intervals... More about our weather records

Advertising

Hamburg Weather History for the Previous 24 Hours

 ConditionsComfort  
Time TempWeatherWind HumidityBarometerVisibility
5:20 PM
Sun, Feb 7
48 °FPartly cloudy.18 mph71%29.50 "HgN/A
4:20 PM50 °FBroken clouds.17 mph71%29.47 "HgN/A
3:50 PM50 °FBroken clouds.15 mph71%29.47 "HgN/A
3:20 PM52 °FBroken clouds.21 mph67%29.47 "HgN/A
2:50 PM52 °FPartly sunny.18 mph72%29.45 "HgN/A
2:20 PM52 °FBroken clouds.21 mph67%29.45 "HgN/A
1:50 PM54 °FBroken clouds.20 mph67%29.42 "HgN/A
1:20 PM54 °FLight rain. Partly sunny.17 mph63%29.42 "HgN/A
12:50 PM54 °FPartly sunny.18 mph63%29.42 "HgN/A
12:20 PM54 °FPartly sunny.15 mph63%29.45 "HgN/A
11:50 AM52 °FSunny.15 mph67%29.45 "Hg10 mi
11:20 AM50 °FSunny.16 mph67%29.45 "Hg10 mi
10:50 AM50 °FSunny.14 mph67%29.45 "Hg10 mi
10:20 AM50 °FSunny.16 mph67%29.45 "Hg10 mi
9:50 AM50 °FSunny.14 mph67%29.45 "Hg10 mi
9:20 AM46 °FSunny.8 mph76%29.45 "Hg10 mi
8:50 AM46 °FPassing clouds.8 mph76%29.45 "HgN/A
8:20 AM41 °FSunny.10 mph87%29.47 "Hg10 mi
7:50 AM41 °FClear.10 mph87%29.47 "Hg10 mi
7:20 AM43 °FClear.10 mph81%29.45 "Hg10 mi
6:50 AM41 °FClear.9 mph87%29.47 "Hg10 mi
6:20 AM43 °FClear.12 mph81%29.47 "Hg10 mi
5:50 AM43 °FClear.12 mph81%29.47 "Hg10 mi
5:20 AM45 °FClear.13 mph76%29.50 "Hg10 mi
4:20 AM43 °FClear.10 mph81%29.50 "Hg10 mi
3:50 AM43 °FClear.10 mph81%29.50 "Hg10 mi
3:20 AM41 °FClear.9 mph87%29.53 "Hg10 mi
2:20 AM45 °FClear.9 mph81%29.56 "Hg10 mi
1:50 AM45 °FClear.12 mph81%29.56 "Hg10 mi
1:20 AM45 °FClear.14 mph81%29.59 "Hg10 mi
12:50 AM45 °FClear.13 mph81%29.59 "Hg10 mi
12:20 AM45 °FClear.13 mph81%29.62 "Hg10 mi
11:50 PM
Sat, Feb 6
45 °FClear.13 mph81%29.62 "Hg10 mi
11:20 PM45 °FClear.14 mph87%29.62 "Hg10 mi
10:50 PM45 °FClear.13 mph87%29.62 "Hg10 mi
9:50 PM45 °FClear.10 mph87%29.65 "Hg10 mi
9:20 PM46 °FClear.10 mph82%29.65 "Hg10 mi
8:50 PM46 °FClear.10 mph87%29.68 "Hg10 mi
8:20 PM46 °FPassing clouds.8 mph87%29.68 "HgN/A
7:50 PM46 °FPassing clouds.8 mph82%29.68 "HgN/A
7:20 PM46 °FPassing clouds.9 mph82%29.68 "HgN/A
6:50 PM48 °FPassing clouds.9 mph82%29.71 "HgN/A
6:20 PM48 °FPartly cloudy.10 mph82%29.71 "HgN/A
Weather by CustomWeather, © 2016

See weather overviewHow to use our weather pages